Regional Weather Roundup
Issued by NWS

Home | Current Version | Previous Version | Text Only | Print | Product List | Glossary Off
Versions: 1 2 3 4 5 6 7 8 9 10 11 12 13 14 15 16 17 18 19 20 21 22 23 24 25 26 27 28 29 30 31 32 33 34 35 36 37 38 39 40 41 42 43 44 45 46 47 48 49 50

000
ASUS43 KDTX 290610
RWRMI
MICHIGAN HOURLY REGIONAL WEATHER ROUNDUP
NATIONAL WEATHER SERVICE DETROIT/PONTIAC MI
200 AM EDT SAT APR 29 2017

NOTE: "FAIR" INDICATES FEW OR NO CLOUDS BELOW 12,000 FEET WITH NO
SIGNIFICANT WEATHER AND/OR OBSTRUCTION TO VISIBILITY.

MIZ047>049-052>055-059>063-066>070-074>076-081>083-290700-
SOUTHEAST LOWER MICHIGAN

CITY           SKY/WX    TMP DP  RH WIND       PRES   REMARKS
ADRIAN         CLOUDY    53  52  96 NE5       29.97F
6HR MIN TEMP:  53; 6HR MAX TEMP:  54; 6HR PCP:  0.03;

ALMA           CLOUDY    50  41  72 N9G16     30.03S
ANN ARBOR      MOCLDY    52  50  93 SW3       29.98S
BAD AXE        CLOUDY    40  32  74 NE8       30.05R WCI  35
6HR MIN TEMP:  40; 6HR MAX TEMP:  58;

CARO           CLOUDY    43  37  78 NE8       30.02R
DETROIT CITY   LGT RAIN  56  50  80 SW3       29.98F
6HR MIN TEMP:  55; 6HR MAX TEMP:  59; 6HR PCP: TRACE;

DETROIT        LGT RAIN  56  52  86 S5        29.99F
6HR MIN TEMP:  54; 6HR MAX TEMP:  59; 6HR PCP: TRACE;

FLINT          CLOUDY    56  48  74 SW5       29.98F
6HR MIN TEMP:  56; 6HR MAX TEMP:  60; 6HR PCP: TRACE;

GROSSE ILE     CLOUDY    54  52  92 CALM      29.98R
6HR MIN TEMP:  54; 6HR MAX TEMP:  57;

HILLSDALE      CLOUDY    52  48  87 E3        29.97F
HOWELL         CLOUDY    52  47  82 CALM      29.98F
6HR MIN TEMP:  52; 6HR MAX TEMP:  59;


CITY           SKY/WX    TMP DP  RH WIND       PRES   REMARKS
JACKSON        CLOUDY    51  46  83 CALM      29.98F
6HR MIN TEMP:  50; 6HR MAX TEMP:  58;

LAMBERTVILLE   CLOUDY    53  52  96 CALM      29.97S
6HR MIN TEMP:  53; 6HR MAX TEMP:  56;

LANSING        CLOUDY    56  47  71 NW5       29.99F
6HR MIN TEMP:  56; 6HR MAX TEMP:  60;

LAPEER         CLOUDY    57  47  71 SW5       29.99F
6HR MIN TEMP:  56; 6HR MAX TEMP:  60;

MASON          CLOUDY    53  49  87 CALM      29.99F
MONROE         CLOUDY    54  53  97 NW6       29.97F
6HR MIN TEMP:  54; 6HR MAX TEMP:  57; 6HR PCP:  0.02;

MT. CLEMENS    CLOUDY    54  51  89 CALM      29.97S
6HR MIN TEMP:  52; 6HR MAX TEMP:  58;

PONTIAC        CLOUDY    54  47  77 NW3       29.97F
6HR MIN TEMP:  54; 6HR MAX TEMP:  60;

PORT HOPE        N/A     42  35  76 N15       30.04R
6HR MIN TEMP:  42; 6HR MAX TEMP:  60;

PORT HURON     CLOUDY    52  48  87 CALM      30.00F
TRI CITIES     CLOUDY    45  41  86 NE14      30.04R
6HR MIN TEMP:  45; 6HR MAX TEMP:  60;

MIDLAND        CLOUDY    46  40  78 E7        30.04S
6HR MIN TEMP:  46; 6HR MAX TEMP:  61;

TROY           CLOUDY    56  48  74 NW3       30.00S
SAGINAW HB     CLOUDY    46  37  71 N10       30.03S
$$
MIZ043>046-050>051-056>058-064>065-071>073-077>080-290700-
SOUTHWEST LOWER MICHIGAN

CITY           SKY/WX    TMP DP  RH WIND       PRES   REMARKS
BATTLE CREEK   CLOUDY    54  47  77 CALM      29.98F
6HR MIN TEMP:  52; 6HR MAX TEMP:  60;

BENTON HARBOR  CLOUDY    48  42  80 N5        29.98F
6HR MIN TEMP:  48; 6HR MAX TEMP:  54;

BIG RAPIDS     CLOUDY    43  35  73 N5        30.05R
6HR MIN TEMP:  43; 6HR MAX TEMP:  53;

COLDWATER      CLOUDY    53  49  83 N5        29.97S
6HR MIN TEMP:  52; 6HR MAX TEMP:  57;

FREMONT        CLOUDY    45  35  68 NE8       30.05R
HOLLAND        CLOUDY    49  38  65 N8        30.03R
6HR MIN TEMP:  49; 6HR MAX TEMP:  56; 6HR PCP: TRACE;

GRAND RAPIDS   CLOUDY    51  39  63 N13       30.01R
6HR MIN TEMP:  51; 6HR MAX TEMP:  59; 6HR PCP: TRACE;

IONIA          CLOUDY    52  40  64 N9        30.01S
6HR MIN TEMP:  52; 6HR MAX TEMP:  60;

KALAMAZOO      CLOUDY    52  46  80 N7        29.98F
6HR MIN TEMP:  52; 6HR MAX TEMP:  60;

LUDINGTON      CLOUDY    42  39  90 N7        30.07R
6HR MIN TEMP:  42; 6HR MAX TEMP:  46; 6HR PCP:  0.03;

MARSHALL       CLOUDY    52  48  87 CALM      29.97F
6HR MIN TEMP:  48; 6HR MAX TEMP:  59;

MOUNT PLEASANT CLOUDY    46  37  71 N8        30.04R
6HR MIN TEMP:  46; 6HR MAX TEMP:  58;

MUSKEGON       CLOUDY    47  36  65 N12G21    30.05R
6HR MIN TEMP:  47; 6HR MAX TEMP:  55; 6HR PCP: TRACE;

SOUTH HAVEN    CLOUDY    49  45  87 N6        29.99F
$$
MIZ016>042-290700-
NORTHERN LOWER MICHIGAN

CITY           SKY/WX    TMP DP  RH WIND       PRES   REMARKS
ALPENA         CLOUDY    39  32  76 N9        30.04R WCI  33
6HR MIN TEMP:  39; 6HR MAX TEMP:  43; 6HR PCP: TRACE;

BEAVER ISLAND  CLOUDY    39  32  76 NW9       30.09R WCI  32
6HR MIN TEMP:  37; 6HR MAX TEMP:  39;

BELLAIRE       CLOUDY    40  32  71 N5        30.08S
6HR MIN TEMP:  40; 6HR MAX TEMP:  44;

CADILLAC       CLOUDY    40  33  78 N3        30.04R
CHARLEVOIX     CLOUDY    39  34  82 CALM      30.10S
6HR MIN TEMP:  38; 6HR MAX TEMP:  41;

FRANKFORT      CLOUDY    42  33  71 N8        30.08R
GAYLORD        CLOUDY    39  28  64 NW8       30.04R WCI  33
6HR MIN TEMP:  39; 6HR MAX TEMP:  45;

GRAYLING       CLOUDY    39  31  72 NW6       30.04S WCI  35
6HR MIN TEMP:  39; 6HR MAX TEMP:  46;

HARBOR SPRINGS CLOUDY    37  34  86 CALM      30.07S
HOUGHTON LAKE  CLOUDY    41  31  67 N5        30.04S
6HR MIN TEMP:  41; 6HR MAX TEMP:  56; 6HR PCP: TRACE;

MANISTEE       CLOUDY    41  38  89 N3        30.08R
OSCODA         CLOUDY    42  36  78 CALM      30.04R
6HR MIN TEMP:  41; 6HR MAX TEMP:  42;

PELLSTON       CLOUDY    38  30  73 CALM      30.06S
6HR MIN TEMP:  38; 6HR MAX TEMP:  42;

ROGERS CITY    CLOUDY    37  32  80 W3        30.06S
TRAVERSE CITY  CLOUDY    43  32  65 N13       30.07R
6HR MIN TEMP:  43; 6HR MAX TEMP:  47;

$$
MIZ007>008-015-290700-
EASTERN UPPER MICHIGAN

CITY           SKY/WX    TMP DP  RH WIND       PRES   REMARKS
KINROSS        CLOUDY    36  25  64 NW17G28   30.05R WCI  25
6HR MIN TEMP:  35; 6HR MAX TEMP:  36;

MACKINAC ISLAN CLOUDY    38  29  71 NW12      30.06R WCI  30
6HR MIN TEMP:  37; 6HR MAX TEMP:  38;

NEWBERRY       CLOUDY    34  26  72 NW8       30.07R WCI  27
6HR MIN TEMP:  34; 6HR MAX TEMP:  37;

S. S. MARIE    CLOUDY    36  27  69 NW13G21   30.04S WCI  27
6HR MIN TEMP:  36; 6HR MAX TEMP:  38;

MUNISING         N/A     37  28  70 N12       30.10S WCI  29
6HR MIN TEMP:  36; 6HR MAX TEMP:  40;

$$
MIZ004>006-011>014-085-290700-
CENTRAL UPPER MICHIGAN

CITY           SKY/WX    TMP DP  RH WIND       PRES   REMARKS
MANISTIQUE     CLOUDY    35  26  71 NW9       30.09S WCI  27
6HR MIN TEMP:  35; 6HR MAX TEMP:  39;

ESCANABA       CLEAR     35  24  64 N6        30.13R WCI  30
6HR MIN TEMP:  35; 6HR MAX TEMP:  45;

MENOMINEE      PTCLDY    38  29  70 N8        30.12R WCI  32
6HR MIN TEMP:  38; 6HR MAX TEMP:  48;

SAWYER-GWINN   CLOUDY    29  24  81 NW7       30.10S WCI  22
6HR MIN TEMP:  29; 6HR MAX TEMP:  37;

$$
MIZ001>003-009>011-084-290700-
WESTERN UPPER MICHIGAN

CITY           SKY/WX    TMP DP  RH WIND       PRES   REMARKS
IRON MOUNTAIN  CLEAR     31  23  72 NW7       30.11R WCI  24
6HR MIN TEMP:  31; 6HR MAX TEMP:  43;

HOUGHTON       CLOUDY    34  24  67 N8        30.11S WCI  27
6HR MIN TEMP:  34; 6HR MAX TEMP:  35;

COPPER HARBOR    N/A     36  29  75 N16       30.11S WCI  26
6HR MIN TEMP:  36; 6HR MAX TEMP:  37;

$$

ABBREVIATIONS USED IN REMARKS
   TC - TEMPERATURE IN CELSIUS
  WCI - WIND CHILL INDEX
   HX - HEAT INDEX
  VSB - VISIBILITY




USA.gov is the U.S. government's official web portal to all federal, state and local government web resources and services.